QPF
0.00 0.00 0.00 0.00 0.00 0.01 0.02 0.03 0.03 0.02 0.02 0.01 0.01 0.01 0.00 0.00 0.00 0.01 0.01 0.01 0.01 0.01 0.01 0.01 0.01 0.01 0.00 0.00 0.00 0.00 0.00 0.00 0.02 0.02 0.06 0.10 0.10 0.10 0.13 0.16 0.17 0.08 0.04
0.00 0.00 0.00 0.00 0.00 0.01 0.02 0.03 0.03 0.02 0.02 0.02 0.01 0.01 0.01 0.00 0.00 0.01 0.01 0.01 0.01 0.01 0.01 0.01 0.01 0.01 0.00 0.00 0.00 0.00 0.01 0.01 0.03 0.06 0.09 0.10 0.11 0.13 0.18 0.20 0.18 0.08 0.06
0.00 0.00 0.00 0.00 0.00 0.01 0.02 0.02 0.03 0.03 0.02 0.01 0.01 0.01 0.01 0.00 0.00 0.01 0.01 0.01 0.01 0.01 0.01 0.01 0.01 0.01 0.01 0.01 0.01 0.01 0.01 0.02 0.05 0.15 0.26 0.23 0.10 0.12 0.17 0.17 0.13 0.08 0.07
0.00 0.00 0.00 0.00 0.00 0.01 0.02 0.03 0.03 0.03 0.02 0.01 0.01 0.01 0.01 0.00 0.00 0.00 0.01 0.01 0.01 0.01 0.00 0.00 0.01 0.01 0.00 0.00 0.00 0.01 0.01 0.03 0.08 0.27 0.39 0.25 0.12 0.09 0.14 0.12 0.08 0.08 0.07
0.00 0.00 0.00 0.00 0.01 0.01 0.02 0.02 0.03 0.03 0.02 0.02 0.01 0.01 0.01 0.00 0.00 0.01 0.01 0.01 0.02 0.01 0.01 0.00 0.00 0.01 0.01 0.00 0.00 0.01 0.02 0.03 0.09 0.30 0.29 0.23 0.14 0.08 0.09 0.10 0.08 0.08 0.06
0.00 0.00 0.00 0.00 0.01 0.01 0.02 0.02 0.02 0.02 0.02 0.02 0.01 0.01 0.01 0.01 0.01 0.01 0.01 0.01 0.01 0.01 0.00 0.00 0.01 0.01 0.00 0.00 0.00 0.01 0.02 0.04 0.17 0.18 0.12 0.17 0.11 0.07 0.08 0.09 0.07 0.07 0.05
0.00 0.00 0.00 0.00 0.01 0.02 0.03 0.03 0.02 0.02 0.02 0.02 0.02 0.01 0.01 0.01 0.01 0.01 0.01 0.01 0.01 0.00 0.00 0.00 0.00 0.00 0.00 0.00 0.00 0.00 0.01 0.05 0.17 0.10 0.07 0.14 0.09 0.05 0.07 0.07 0.06 0.06 0.05
0.00 0.00 0.00 0.00 0.01 0.02 0.03 0.04 0.04 0.03 0.02 0.01 0.01 0.01 0.01 0.01 0.01 0.00 0.01 0.01 0.01 0.01 0.01 0.00 0.00 0.00 0.00 0.00 0.00 0.00 0.00 0.02 0.04 0.04 0.06 0.08 0.03 0.04 0.05 0.05 0.06 0.05 0.04
0.01 0.00 0.00 0.00 0.00 0.01 0.03 0.05 0.04 0.03 0.02 0.01 0.01 0.01 0.00 0.00 0.00 0.00 0.00 0.01 0.01 0.01 0.01 0.01 0.01 0.00 0.00 0.00 0.00 0.00 0.00 0.01 0.02 0.04 0.07 0.05 0.01 0.03 0.05 0.05 0.05 0.05 0.04
0.03 0.01 0.03 0.01 0.00 0.00 0.01 0.02 0.02 0.02 0.01 0.01 0.00 0.01 0.01 0.01 0.02 0.02 0.01 0.01 0.01 0.01 0.02 0.02 0.02 0.01 0.00 0.00 0.00 0.00 0.00 0.01 0.03 0.09 0.11 0.04 0.01 0.02 0.03 0.04 0.04 0.05 0.04
0.05 0.03 0.08 0.06 0.01 0.01 0.01 0.01 0.02 0.02 0.01 0.02 0.03 0.01 0.02 0.06 0.10 0.11 0.07 0.05 0.03 0.02 0.02 0.02 0.03 0.03 0.02 0.01 0.01 0.00 0.00 0.01 0.15 0.18 0.12 0.03 0.01 0.02 0.02 0.04 0.04 0.06 0.06
0.08 0.05 0.07 0.09 0.04 0.04 0.05 0.04 0.09 0.06 0.04 0.07 0.10 0.06 0.08 0.11 0.09 0.10 0.10 0.06 0.04 0.03 0.03 0.03 0.03 0.03 0.05 0.08 0.07 0.02 0.00 0.02 0.12 0.18 0.10 0.02 0.01 0.02 0.03 0.03 0.04 0.04 0.06
0.07 0.06 0.05 0.06 0.05 0.06 0.09 0.08 0.11 0.10 0.08 0.08 0.08 0.05 0.06 0.06 0.06 0.06 0.10 0.11 0.10 0.08 0.13 0.17 0.08 0.06 0.10 0.14 0.16 0.09 0.02 0.03 0.11 0.14 0.11 0.03 0.01 0.01 0.03 0.03 0.02 0.03 0.05
0.06 0.06 0.06 0.07 0.07 0.10 0.06 0.06 0.06 0.05 0.05 0.08 0.06 0.02 0.03 0.04 0.05 0.05 0.08 0.09 0.11 0.15 0.21 0.19 0.17 0.13 0.12 0.14 0.13 0.10 0.05 0.03 0.14 0.22 0.15 0.05 0.02 0.02 0.02 0.03 0.03 0.03 0.03
0.08 0.10 0.11 0.12 0.11 0.10 0.09 0.07 0.04 0.04 0.04 0.04 0.03 0.02 0.01 0.01 0.02 0.03 0.04 0.05 0.06 0.08 0.12 0.14 0.13 0.13 0.14 0.18 0.16 0.11 0.07 0.04 0.05 0.13 0.23 0.11 0.04 0.02 0.03 0.03 0.03 0.04 0.04
0.12 0.11 0.13 0.14 0.11 0.10 0.09 0.07 0.05 0.03 0.03 0.02 0.01 0.01 0.00 0.01 0.01 0.01 0.02 0.02 0.03 0.05 0.07 0.09 0.12 0.12 0.13 0.14 0.13 0.12 0.09 0.07 0.05 0.06 0.14 0.13 0.05 0.02 0.02 0.03 0.03 0.04 0.05
0.19 0.14 0.15 0.13 0.12 0.12 0.10 0.05 0.03 0.02 0.01 0.01 0.01 0.01 0.01 0.00 0.01 0.01 0.02 0.01 0.02 0.03 0.03 0.04 0.07 0.09 0.09 0.11 0.11 0.11 0.11 0.08 0.07 0.06 0.08 0.11 0.09 0.05 0.03 0.03 0.04 0.04 0.05
0.22 0.18 0.18 0.13 0.12 0.11 0.10 0.06 0.03 0.01 0.00 0.00 0.00 0.00 0.01 0.01 0.01 0.01 0.02 0.02 0.01 0.01 0.02 0.02 0.03 0.05 0.07 0.08 0.08 0.08 0.10 0.08 0.07 0.06 0.05 0.06 0.08 0.10 0.08 0.05 0.04 0.04 0.04
0.24 0.22 0.20 0.19 0.15 0.10 0.07 0.04 0.03 0.01 0.01 0.00 0.00 0.00 0.00 0.00 0.01 0.01 0.01 0.01 0.01 0.01 0.01 0.01 0.02 0.02 0.03 0.03 0.03 0.05 0.04 0.04 0.03 0.03 0.03 0.03 0.05 0.08 0.13 0.11 0.04 0.03 0.03
0.19 0.20 0.19 0.19 0.15 0.11 0.08 0.04 0.03 0.02 0.01 0.00 0.00 0.00 0.00 0.00 0.00 0.01 0.01 0.01 0.01 0.01 0.00 0.01 0.01 0.02 0.02 0.02 0.01 0.02 0.02 0.02 0.01 0.02 0.02 0.03 0.04 0.05 0.07 0.07 0.06 0.04 0.04
0.14 0.15 0.16 0.20 0.17 0.14 0.09 0.04 0.02 0.02 0.01 0.00 0.00 0.00 0.00 0.00 0.00 0.01 0.01 0.01 0.01 0.01 0.01 0.00 0.01 0.01 0.01 0.00 0.00 0.00 0.00 0.00 0.01 0.01 0.01 0.02 0.03 0.03 0.05 0.08 0.08 0.10 0.08
0.12 0.12 0.13 0.16 0.16 0.13 0.08 0.04 0.03 0.02 0.01 0.01 0.00 0.00 0.00 0.00 0.00 0.00 0.00 0.00 0.00 0.00 0.00 0.00 0.00 0.00 0.00 0.00 0.00 0.00 0.01 0.02 0.01 0.01 0.00 0.01 0.01 0.01 0.02 0.04 0.05 0.06 0.06
0.14 0.13 0.14 0.16 0.14 0.12 0.07 0.03 0.02 0.02 0.01 0.00 0.00 0.00 0.00 0.00 0.00 0.00 0.00 0.00 0.00 0.00 0.00 0.00 0.00 0.00 0.00 0.00 0.00 0.00 0.01 0.02 0.02 0.01 0.00 0.00 0.00 0.00 0.01 0.01 0.02 0.03 0.04
0.12 0.14 0.15 0.13 0.10 0.08 0.05 0.03 0.02 0.02 0.01 0.00 0.00 0.00 0.00 0.00 0.00 0.00 0.00 0.00 0.00 0.00 0.00 0.00 0.00 0.00 0.00 0.00 0.00 0.00 0.00 0.01 0.02 0.02 0.01 0.00 0.00 0.00 0.00 0.00 0.01 0.02 0.02
0.08 0.12 0.13 0.12 0.09 0.06 0.05 0.03 0.03 0.02 0.01 0.01 0.00 0.01 0.01 0.00 0.00 0.00 0.00 0.00 0.00 0.00 0.00 0.00 0.00 0.00 0.00 0.00 0.00 0.00 0.00 0.00 0.00 0.00 0.02 0.01 0.00 0.00 0.00 0.00 0.00 0.01 0.01
0.07 0.07 0.09 0.10 0.08 0.06 0.05 0.03 0.03 0.03 0.02 0.02 0.01 0.02 0.01 0.00 0.00 0.00 0.00 0.00 0.00 0.00 0.00 0.00 0.00 0.00 0.00 0.00 0.00 0.00 0.00 0.00 0.00 0.00 0.00 0.01 0.00 0.00 0.00 0.00 0.00 0.00 0.00
MSLP
1009.14 1009.32 1009.73 1010.36 1011.11 1011.88 1012.57 1013.09 1013.43 1013.60 1013.66 1013.70 1013.79 1013.96 1014.22 1014.55 1014.91 1015.23 1015.48 1015.64 1015.72 1015.76 1015.78 1015.82 1015.89 1015.99 1016.11 1016.21 1016.29 1016.33 1016.37 1016.41 1016.48 1016.62 1016.82 1017.07 1017.35 1017.64 1017.89 1018.10 1018.25 1018.36 1018.46
1009.11 1009.40 1009.92 1010.63 1011.43 1012.21 1012.88 1013.36 1013.66 1013.79 1013.84 1013.88 1014.00 1014.21 1014.52 1014.90 1015.28 1015.61 1015.85 1015.99 1016.04 1016.05 1016.05 1016.07 1016.12 1016.21 1016.31 1016.39 1016.45 1016.48 1016.51 1016.55 1016.63 1016.79 1017.02 1017.30 1017.62 1017.92 1018.19 1018.40 1018.55 1018.66 1018.76
1009.03 1009.43 1010.05 1010.84 1011.69 1012.49 1013.15 1013.62 1013.90 1014.02 1014.07 1014.13 1014.27 1014.51 1014.84 1015.22 1015.58 1015.89 1016.09 1016.20 1016.22 1016.21 1016.20 1016.22 1016.28 1016.36 1016.45 1016.52 1016.56 1016.58 1016.59 1016.63 1016.74 1016.92 1017.18 1017.50 1017.84 1018.16 1018.44 1018.65 1018.81 1018.92 1019.02
1008.91 1009.42 1010.13 1010.99 1011.89 1012.72 1013.39 1013.86 1014.14 1014.27 1014.34 1014.42 1014.57 1014.82 1015.15 1015.50 1015.82 1016.08 1016.23 1016.30 1016.30 1016.28 1016.28 1016.32 1016.39 1016.48 1016.57 1016.63 1016.65 1016.64 1016.64 1016.68 1016.80 1017.00 1017.30 1017.65 1018.02 1018.36 1018.65 1018.87 1019.02 1019.14 1019.25
1008.78 1009.38 1010.18 1011.11 1012.05 1012.90 1013.59 1014.07 1014.36 1014.51 1014.61 1014.72 1014.89 1015.13 1015.43 1015.74 1016.01 1016.20 1016.30 1016.33 1016.32 1016.32 1016.34 1016.41 1016.51 1016.62 1016.70 1016.73 1016.72 1016.69 1016.66 1016.69 1016.82 1017.05 1017.38 1017.76 1018.16 1018.53 1018.83 1019.05 1019.21 1019.34 1019.47
1008.69 1009.37 1010.24 1011.22 1012.19 1013.06 1013.76 1014.25 1014.55 1014.73 1014.85 1014.99 1015.17 1015.41 1015.68 1015.94 1016.16 1016.29 1016.35 1016.35 1016.35 1016.36 1016.42 1016.53 1016.66 1016.78 1016.86 1016.87 1016.82 1016.74 1016.68 1016.69 1016.82 1017.07 1017.42 1017.84 1018.27 1018.66 1018.98 1019.21 1019.38 1019.51 1019.66
1008.70 1009.44 1010.36 1011.37 1012.36 1013.22 1013.91 1014.39 1014.70 1014.90 1015.04 1015.20 1015.40 1015.64 1015.89 1016.11 1016.27 1016.36 1016.39 1016.38 1016.39 1016.44 1016.55 1016.71 1016.87 1017.00 1017.06 1017.04 1016.94 1016.81 1016.71 1016.69 1016.81 1017.06 1017.44 1017.89 1018.36 1018.77 1019.10 1019.35 1019.52 1019.67 1019.83
1008.82 1009.61 1010.56 1011.57 1012.54 1013.37 1014.03 1014.49 1014.79 1014.99 1015.15 1015.33 1015.55 1015.79 1016.02 1016.22 1016.35 1016.41 1016.42 1016.42 1016.46 1016.55 1016.70 1016.90 1017.10 1017.24 1017.29 1017.23 1017.09 1016.90 1016.75 1016.70 1016.79 1017.05 1017.44 1017.92 1018.41 1018.85 1019.20 1019.46 1019.65 1019.80 1019.97
1009.06 1009.87 1010.82 1011.80 1012.73 1013.51 1014.10 1014.52 1014.80 1014.99 1015.17 1015.37 1015.60 1015.85 1016.08 1016.27 1016.38 1016.42 1016.42 1016.43 1016.49 1016.62 1016.83 1017.07 1017.30 1017.46 1017.50 1017.42 1017.23 1017.01 1016.81 1016.72 1016.79 1017.03 1017.43 1017.92 1018.43 1018.89 1019.27 1019.55 1019.75 1019.90 1020.07
1009.37 1010.17 1011.10 1012.04 1012.89 1013.59 1014.11 1014.47 1014.71 1014.90 1015.08 1015.30 1015.56 1015.82 1016.06 1016.24 1016.34 1016.37 1016.37 1016.39 1016.46 1016.62 1016.86 1017.14 1017.40 1017.59 1017.64 1017.56 1017.36 1017.10 1016.87 1016.75 1016.78 1017.01 1017.40 1017.89 1018.41 1018.90 1019.31 1019.61 1019.82 1019.98 1020.14
1009.69 1010.48 1011.36 1012.22 1012.99 1013.60 1014.04 1014.34 1014.54 1014.72 1014.91 1015.16 1015.44 1015.72 1015.97 1016.15 1016.24 1016.26 1016.25 1016.25 1016.33 1016.50 1016.76 1017.07 1017.37 1017.59 1017.68 1017.62 1017.43 1017.18 1016.93 1016.78 1016.79 1016.98 1017.35 1017.83 1018.36 1018.86 1019.29 1019.62 1019.85 1020.02 1020.18
1009.98 1010.74 1011.55 1012.33 1013.01 1013.53 1013.89 1014.14 1014.32 1014.49 1014.70 1014.97 1015.28 1015.59 1015.85 1016.03 1016.11 1016.10 1016.06 1016.04 1016.10 1016.26 1016.53 1016.87 1017.20 1017.47 1017.61 1017.60 1017.45 1017.22 1016.98 1016.82 1016.80 1016.96 1017.28 1017.74 1018.26 1018.77 1019.22 1019.58 1019.85 1020.04 1020.20
1010.22 1010.93 1011.67 1012.37 1012.95 1013.39 1013.70 1013.91 1014.07 1014.26 1014.50 1014.80 1015.14 1015.47 1015.74 1015.91 1015.97 1015.94 1015.86 1015.80 1015.82 1015.96 1016.22 1016.56 1016.93 1017.24 1017.45 1017.51 1017.42 1017.24 1017.03 1016.87 1016.82 1016.93 1017.21 1017.62 1018.12 1018.63 1019.10 1019.49 1019.80 1020.02 1020.19
1010.40 1011.05 1011.72 1012.33 1012.84 1013.23 1013.50 1013.70 1013.88 1014.09 1014.37 1014.70 1015.07 1015.41 1015.69 1015.85 1015.89 1015.82 1015.71 1015.60 1015.58 1015.67 1015.90 1016.23 1016.62 1016.98 1017.25 1017.39 1017.39 1017.27 1017.10 1016.94 1016.87 1016.93 1017.14 1017.50 1017.94 1018.44 1018.92 1019.35 1019.70 1019.96 1020.17
1010.54 1011.13 1011.73 1012.27 1012.73 1013.08 1013.35 1013.57 1013.79 1014.04 1014.35 1014.72 1015.11 1015.46 1015.74 1015.89 1015.91 1015.82 1015.67 1015.52 1015.44 1015.49 1015.68 1015.99 1016.37 1016.76 1017.08 1017.30 1017.37 1017.32 1017.20 1017.05 1016.95 1016.95 1017.09 1017.37 1017.76 1018.22 1018.70 1019.15 1019.54 1019.86 1020.11
1010.68 1011.20 1011.73 1012.23 1012.65 1013.01 1013.30 1013.56 1013.83 1014.13 1014.48 1014.87 1015.27 1015.63 1015.90 1016.05 1016.06 1015.96 1015.79 1015.61 1015.49 1015.49 1015.63 1015.90 1016.25 1016.65 1017.00 1017.27 1017.41 1017.42 1017.34 1017.20 1017.08 1017.02 1017.08 1017.27 1017.58 1017.98 1018.44 1018.90 1019.34 1019.71 1020.00
1010.82 1011.29 1011.76 1012.21 1012.64 1013.01 1013.35 1013.68 1014.00 1014.35 1014.73 1015.13 1015.53 1015.88 1016.14 1016.29 1016.31 1016.22 1016.06 1015.87 1015.74 1015.70 1015.78 1016.00 1016.31 1016.68 1017.04 1017.33 1017.51 1017.57 1017.52 1017.39 1017.25 1017.14 1017.12 1017.21 1017.43 1017.76 1018.17 1018.63 1019.08 1019.49 1019.83
1010.99 1011.39 1011.81 1012.25 1012.68 1013.09 1013.49 1013.88 1014.27 1014.66 1015.05 1015.45 1015.83 1016.16 1016.41 1016.56 1016.61 1016.55 1016.42 1016.27 1016.14 1016.08 1016.12 1016.28 1016.53 1016.85 1017.17 1017.46 1017.66 1017.75 1017.73 1017.62 1017.46 1017.31 1017.21 1017.21 1017.33 1017.57 1017.92 1018.33 1018.78 1019.21 1019.59
1011.17 1011.51 1011.89 1012.31 1012.76 1013.22 1013.68 1014.13 1014.57 1014.98 1015.38 1015.75 1016.09 1016.39 1016.63 1016.79 1016.87 1016.87 1016.81 1016.71 1016.62 1016.56 1016.57 1016.67 1016.86 1017.10 1017.38 1017.63 1017.83 1017.94 1017.95 1017.86 1017.70 1017.52 1017.37 1017.29 1017.31 1017.45 1017.71 1018.06 1018.47 1018.89 1019.29
1011.36 1011.66 1012.00 1012.40 1012.86 1013.36 1013.87 1014.37 1014.85 1015.27 1015.65 1015.98 1016.27 1016.53 1016.74 1016.91 1017.04 1017.11 1017.13 1017.12 1017.08 1017.05 1017.06 1017.11 1017.22 1017.40 1017.60 1017.82 1018.00 1018.11 1018.15 1018.09 1017.96 1017.77 1017.58 1017.44 1017.37 1017.41 1017.56 1017.83 1018.17 1018.56 1018.96
1011.58 1011.83 1012.12 1012.50 1012.96 1013.48 1014.03 1014.57 1015.06 1015.49 1015.83 1016.11 1016.34 1016.54 1016.73 1016.90 1017.07 1017.22 1017.34 1017.42 1017.46 1017.48 1017.49 1017.51 1017.57 1017.67 1017.81 1017.97 1018.13 1018.26 1018.32 1018.31 1018.21 1018.05 1017.85 1017.66 1017.52 1017.46 1017.51 1017.67 1017.93 1018.25 1018.61
1011.85 1012.04 1012.29 1012.63 1013.07 1013.59 1014.16 1014.71 1015.21 1015.62 1015.93 1016.15 1016.32 1016.46 1016.60 1016.78 1016.98 1017.19 1017.40 1017.58 1017.71 1017.79 1017.82 1017.84 1017.85 1017.89 1017.97 1018.09 1018.23 1018.36 1018.46 1018.50 1018.46 1018.33 1018.15 1017.94 1017.75 1017.61 1017.55 1017.60 1017.76 1018.00 1018.31
1012.18 1012.33 1012.52 1012.81 1013.21 1013.71 1014.26 1014.81 1015.30 1015.68 1015.96 1016.13 1016.24 1016.32 1016.43 1016.59 1016.81 1017.07 1017.36 1017.62 1017.83 1017.98 1018.05 1018.07 1018.06 1018.07 1018.10 1018.18 1018.30 1018.45 1018.58 1018.67 1018.69 1018.62 1018.47 1018.26 1018.04 1017.84 1017.69 1017.64 1017.68 1017.84 1018.07
1012.59 1012.70 1012.83 1013.05 1013.39 1013.84 1014.36 1014.89 1015.36 1015.73 1015.98 1016.11 1016.17 1016.21 1016.28 1016.42 1016.64 1016.93 1017.26 1017.59 1017.87 1018.07 1018.19 1018.23 1018.23 1018.21 1018.22 1018.27 1018.39 1018.54 1018.70 1018.83 1018.90 1018.89 1018.79 1018.60 1018.37 1018.12 1017.91 1017.77 1017.72 1017.77 1017.92
1013.05 1013.12 1013.19 1013.34 1013.61 1014.00 1014.47 1014.96 1015.42 1015.77 1016.01 1016.12 1016.16 1016.16 1016.20 1016.31 1016.51 1016.81 1017.17 1017.53 1017.86 1018.12 1018.28 1018.36 1018.37 1018.35 1018.35 1018.39 1018.49 1018.64 1018.82 1018.99 1019.10 1019.14 1019.08 1018.92 1018.70 1018.44 1018.18 1017.97 1017.83 1017.80 1017.87
1013.48 1013.53 1013.55 1013.63 1013.82 1014.14 1014.56 1015.01 1015.45 1015.80 1016.04 1016.16 1016.19 1016.19 1016.20 1016.29 1016.47 1016.75 1017.10 1017.49 1017.85 1018.14 1018.35 1018.46 1018.50 1018.50 1018.50 1018.54 1018.63 1018.77 1018.95 1019.13 1019.27 1019.34 1019.32 1019.20 1018.99 1018.73 1018.45 1018.20 1018.00 1017.89 1017.89
Thickness
5813 5805 5799 5796 5793 5790 5787 5785 5782 5780 5777 5775 5773 5772 5771 5769 5768 5767 5766 5765 5763 5762 5761 5760 5759 5758 5757 5756 5755 5754 5753 5753 5752 5751 5749 5747 5745 5743 5741 5740 5739 5738 5737
5814 5803 5797 5793 5790 5788 5785 5782 5780 5778 5775 5773 5771 5770 5768 5767 5766 5765 5764 5762 5761 5760 5759 5758 5757 5756 5755 5754 5753 5752 5752 5752 5751 5750 5748 5745 5743 5741 5739 5738 5738 5736 5736
5811 5801 5794 5791 5788 5785 5783 5780 5778 5776 5773 5771 5769 5768 5766 5765 5764 5762 5761 5760 5759 5758 5757 5756 5755 5754 5753 5752 5752 5752 5751 5751 5750 5748 5746 5744 5742 5740 5738 5737 5736 5735 5735
5807 5800 5794 5788 5785 5783 5780 5778 5776 5773 5771 5769 5767 5766 5764 5763 5761 5760 5759 5757 5756 5755 5754 5753 5752 5751 5751 5750 5750 5751 5750 5750 5749 5746 5744 5743 5742 5739 5737 5736 5735 5734 5733
5805 5798 5790 5786 5783 5780 5778 5775 5773 5771 5769 5767 5765 5763 5762 5760 5759 5757 5756 5754 5753 5752 5751 5751 5750 5749 5748 5748 5749 5749 5749 5749 5748 5746 5744 5743 5741 5738 5736 5735 5734 5733 5732
5801 5794 5787 5784 5781 5778 5776 5773 5771 5768 5766 5764 5762 5761 5759 5758 5756 5755 5753 5752 5751 5749 5749 5748 5747 5746 5746 5746 5747 5748 5748 5749 5749 5747 5744 5742 5740 5737 5735 5734 5733 5732 5731
5799 5792 5785 5781 5778 5776 5773 5771 5768 5766 5764 5762 5760 5758 5757 5755 5754 5752 5751 5749 5748 5747 5746 5745 5745 5744 5743 5743 5744 5746 5747 5748 5749 5749 5745 5742 5738 5736 5734 5733 5732 5731 5730
5798 5790 5782 5778 5776 5773 5771 5768 5766 5764 5762 5760 5758 5756 5755 5753 5752 5750 5749 5747 5746 5745 5744 5743 5742 5742 5741 5741 5742 5744 5746 5747 5749 5750 5746 5741 5737 5735 5733 5732 5730 5730 5729
5796 5787 5780 5776 5773 5770 5768 5766 5764 5762 5760 5758 5756 5755 5753 5752 5750 5748 5747 5745 5744 5743 5742 5741 5740 5740 5739 5739 5740 5742 5745 5746 5748 5748 5743 5739 5736 5734 5732 5730 5729 5728 5727
5791 5785 5780 5777 5773 5769 5766 5764 5762 5760 5759 5757 5755 5754 5753 5751 5749 5748 5746 5744 5743 5742 5740 5740 5739 5738 5738 5738 5739 5741 5743 5744 5746 5744 5739 5736 5735 5733 5730 5729 5728 5727 5726
5785 5783 5781 5778 5774 5771 5767 5763 5761 5759 5757 5756 5754 5753 5752 5751 5750 5748 5746 5744 5743 5742 5740 5739 5738 5737 5737 5737 5738 5739 5741 5742 5741 5739 5736 5735 5734 5732 5729 5728 5727 5725 5725
5777 5779 5781 5778 5775 5772 5770 5763 5761 5760 5757 5756 5755 5753 5752 5751 5751 5749 5746 5744 5743 5742 5740 5739 5737 5736 5736 5737 5737 5738 5740 5741 5740 5736 5734 5734 5734 5731 5728 5727 5725 5724 5723
5775 5777 5778 5777 5774 5771 5767 5764 5761 5761 5757 5756 5753 5753 5751 5751 5750 5748 5745 5744 5742 5741 5740 5739 5737 5736 5736 5736 5737 5738 5740 5742 5740 5738 5733 5733 5733 5730 5728 5725 5724 5723 5722
5772 5773 5774 5773 5770 5768 5765 5763 5761 5760 5757 5754 5751 5751 5750 5749 5748 5746 5745 5743 5742 5742 5740 5739 5737 5736 5736 5735 5735 5737 5739 5740 5738 5736 5732 5732 5731 5730 5727 5725 5723 5721 5721
5768 5768 5769 5768 5764 5763 5761 5760 5760 5758 5755 5752 5750 5748 5748 5748 5746 5745 5743 5742 5741 5741 5740 5738 5737 5736 5735 5734 5734 5737 5737 5738 5738 5736 5734 5732 5730 5729 5727 5724 5722 5720 5719
5762 5762 5762 5760 5759 5758 5756 5756 5755 5755 5753 5751 5748 5746 5746 5745 5743 5742 5742 5741 5740 5740 5739 5738 5737 5736 5736 5736 5736 5736 5735 5736 5736 5735 5732 5729 5728 5727 5726 5724 5722 5720 5719
5757 5757 5755 5754 5754 5753 5752 5752 5753 5752 5751 5749 5745 5744 5743 5742 5741 5740 5741 5740 5739 5739 5739 5738 5737 5737 5736 5737 5736 5736 5734 5734 5734 5733 5731 5729 5727 5726 5725 5724 5722 5720 5719
5750 5751 5751 5753 5749 5748 5748 5749 5750 5750 5749 5746 5744 5742 5740 5739 5740 5739 5739 5738 5738 5739 5739 5738 5737 5736 5736 5736 5735 5735 5735 5734 5733 5733 5732 5731 5729 5727 5725 5723 5722 5720 5718
5746 5746 5745 5747 5746 5745 5745 5746 5746 5747 5746 5745 5743 5740 5739 5738 5738 5738 5737 5736 5737 5738 5738 5737 5734 5734 5733 5734 5734 5734 5734 5734 5734 5734 5733 5732 5731 5728 5726 5724 5722 5720 5718
5743 5741 5741 5742 5742 5743 5743 5743 5743 5743 5743 5743 5741 5738 5738 5737 5736 5736 5736 5736 5736 5736 5735 5733 5732 5733 5731 5732 5734 5734 5734 5735 5734 5734 5733 5733 5732 5729 5728 5726 5722 5720 5718
5738 5737 5737 5737 5738 5739 5739 5738 5737 5737 5740 5741 5739 5737 5736 5735 5735 5734 5735 5735 5735 5733 5732 5732 5730 5731 5731 5732 5730 5730 5733 5735 5735 5734 5733 5732 5731 5730 5728 5726 5723 5721 5719
5735 5735 5735 5734 5735 5737 5738 5738 5738 5738 5740 5740 5739 5736 5735 5735 5734 5735 5733 5734 5733 5732 5731 5731 5730 5728 5731 5732 5727 5724 5723 5724 5729 5735 5732 5730 5730 5729 5727 5726 5724 5721 5720
5734 5734 5735 5734 5734 5736 5737 5738 5738 5737 5738 5738 5736 5735 5735 5735 5734 5732 5733 5733 5733 5733 5730 5730 5728 5727 5726 5729 5730 5724 5718 5715 5719 5726 5729 5728 5727 5725 5726 5725 5723 5721 5720
5736 5736 5737 5736 5735 5735 5736 5737 5735 5733 5733 5736 5737 5736 5735 5735 5734 5733 5733 5732 5731 5731 5729 5729 5727 5728 5725 5724 5727 5727 5724 5720 5715 5714 5720 5724 5724 5723 5722 5723 5721 5720 5718
5740 5739 5738 5737 5735 5736 5736 5737 5736 5736 5737 5738 5738 5736 5735 5735 5735 5734 5733 5732 5731 5730 5728 5727 5727 5726 5725 5723 5724 5725 5724 5723 5721 5715 5711 5715 5718 5721 5721 5719 5718 5717 5715
5743 5741 5739 5736 5735 5736 5735 5737 5736 5736 5737 5736 5735 5734 5735 5736 5735 5735 5734 5732 5730 5729 5727 5726 5725 5724 5722 5722 5721 5722 5720 5718 5716 5715 5711 5710 5712 5716 5718 5717 5716 5714 5713